Chennai, India

12:02 AM IST on August 19, 2017 (GMT +0530)
Chennai International

Weather History for VOMM - October, 2012

Change the Weather History Date:

Thursday, October 4, 2012

  Actual Average Record
Temperature  
Mean Temperature 88 °F -  
Max Temperature 98 °F 85 °F 98 °F (2012)
Min Temperature 77 °F 74 °F 68 °F (1999)
Cooling Degree Days 22    
Growing Degree Days 38 (Base 50)    
Moisture  
Dew Point 73 °F    
Average Humidity 66    
Maximum Humidity 89    
Minimum Humidity 26    
Precipitation  
Precipitation 0.00 in 0.50 in - ()
Sea Level Pressure  
Sea Level Pressure 29.75 in    
Wind  
Wind Speed 7 mph ()    
Max Wind Speed 14 mph    
Max Gust Speed -    
Visibility 4.2 miles    
Events      
Averages and records for this station are not official NWS values.
T = Trace of Precipitation, MM = Missing Value Source: Averaged Metar Reports

Daily Weather History Graph

Daily Weather History Graph

Search for Another Location

Airport or City:

Trip Planner

Search our weather history database for the weather conditions in past years. The results will help you decide how hot, cold, wet, or windy it might be!

Date:

Astronomy

Oct. 04, 2012 Rise Set
Actual Time 5:58 AM IST 5:57 PM IST
Civil Twilight 5:37 AM IST 6:18 PM IST
Nautical Twilight 5:12 AM IST 6:42 PM IST
Astronomical Twilight 4:48 AM IST 7:07 PM IST
Moon 8:54 PM IST (10/4) 9:09 AM IST (10/4)
Length of Visible Light 12h 40m
Length of Day
11h 58m
Waning Gibbous, 85% of the Moon is Illuminated
Oct 4
Waning Gibbous
Oct 8
Last Quarter
Oct 15
New
Oct 22
First Quarter
Oct 30
Full

Hourly Weather History & Observations

Time (IST) Temp. Heat Index Dew Point Humidity Pressure Visibility Wind Dir Wind Speed Gust Speed Precip Events Conditions
12:10 AM 82.4 °F 90.9 °F 77.0 °F 84% 29.77 in 3.7 mi SSW 8.1 mph - N/A   Partly Cloudy
12:40 AM 82.4 °F 90.9 °F 77.0 °F 84% 29.77 in 3.7 mi SSW 6.9 mph - N/A   Partly Cloudy
1:10 AM 82.4 °F 90.9 °F 77.0 °F 84% 29.77 in 3.7 mi SW 6.9 mph - N/A   Partly Cloudy
1:40 AM 82.4 °F 89.5 °F 75.2 °F 79% 29.77 in 3.7 mi SW 9.2 mph - N/A   Partly Cloudy
2:10 AM 82.4 °F 89.5 °F 75.2 °F 79% 29.74 in 3.7 mi SSW 9.2 mph - N/A   Partly Cloudy
2:30 AM 81 °F - 75 °F 78% 29.78 in 2 mi Calm Calm - -   Scattered Clouds
2:40 AM 82.4 °F 89.5 °F 75.2 °F 79% 29.74 in 3.7 mi SSW 5.8 mph - N/A   Partly Cloudy
3:10 AM 82.4 °F 89.5 °F 75.2 °F 79% 29.74 in 3.7 mi SSW 6.9 mph - N/A   Partly Cloudy
3:40 AM 80.6 °F 86.2 °F 75.2 °F 84% 29.74 in 3.7 mi SSW 8.1 mph - N/A   Partly Cloudy
4:10 AM 80.6 °F 86.2 °F 75.2 °F 84% 29.74 in 3.7 mi SSW 6.9 mph - N/A   Partly Cloudy
4:40 AM 80.6 °F 86.2 °F 75.2 °F 84% 29.74 in 3.7 mi SSW 9.2 mph - N/A   Partly Cloudy
5:10 AM 80.6 °F 86.2 °F 75.2 °F 84% 29.77 in 3.7 mi SSW 9.2 mph - N/A   Partly Cloudy
5:30 AM 80 °F - 75 °F 82% 29.79 in 2 mi SSW 4.6 mph - -   Scattered Clouds
5:40 AM 80.6 °F 86.2 °F 75.2 °F 84% 29.77 in 3.7 mi SSW 6.9 mph - N/A   Partly Cloudy
6:10 AM 78.8 °F - 75.2 °F 89% 29.77 in 3.7 mi SSW 4.6 mph - N/A   Partly Cloudy
6:40 AM 80.6 °F 86.2 °F 75.2 °F 84% 29.80 in 3.7 mi SSW 6.9 mph - N/A   Partly Cloudy
7:10 AM 80.6 °F 86.2 °F 75.2 °F 84% 29.80 in 3.7 mi SSW 10.4 mph - N/A   Partly Cloudy
7:40 AM 82.4 °F 89.5 °F 75.2 °F 79% 29.80 in 4.3 mi SSW 5.8 mph - N/A   Partly Cloudy
8:10 AM 84.2 °F 92.3 °F 75.2 °F 74% 29.80 in 4.3 mi SSW 9.2 mph - N/A   Partly Cloudy
8:30 AM 85 °F - 74 °F 62% 29.86 in 6 mi West 2.3 mph - -  
8:40 AM 84.2 °F 90.9 °F 73.4 °F 70% 29.83 in 4.3 mi SW 10.4 mph - N/A   Partly Cloudy
9:10 AM 86.0 °F 93.4 °F 73.4 °F 66% 29.83 in 5.0 mi WSW 8.1 mph - N/A   Partly Cloudy
9:40 AM 87.8 °F 93.8 °F 71.6 °F 58% 29.83 in 5.0 mi West 10.4 mph - N/A   Unknown
10:10 AM 87.8 °F 93.8 °F 71.6 °F 58% 29.80 in 5.0 mi WSW 10.4 mph - N/A   Unknown
10:40 AM 89.6 °F 94.7 °F 69.8 °F 52% 29.80 in 5.0 mi West 10.4 mph - N/A   Unknown
11:10 AM 91.4 °F 96.8 °F 69.8 °F 49% 29.80 in 5.0 mi WNW 11.5 mph - N/A   Unknown
11:30 AM 92 °F - 70 °F 38% 29.81 in 6 mi WNW 3.5 mph - -   Clear
11:40 AM 91.4 °F 95.4 °F 68.0 °F 46% 29.77 in 5.0 mi WSW 9.2 mph - N/A   Partly Cloudy
12:10 PM 93.2 °F 96.2 °F 66.2 °F 41% 29.74 in 5.0 mi West 10.4 mph - N/A   Partly Cloudy
12:40 PM 93.2 °F 96.2 °F 66.2 °F 41% 29.74 in 5.0 mi WSW 10.4 mph - N/A   Partly Cloudy
1:10 PM 95.0 °F 99.5 °F 68.0 °F 41% 29.71 in 5.0 mi West 9.2 mph - N/A   Partly Cloudy
1:40 PM 95.0 °F 98.5 °F 66.2 °F 39% 29.71 in 5.0 mi West 6.9 mph - N/A   Partly Cloudy
2:10 PM 95.0 °F 98.5 °F 66.2 °F 39% 29.68 in 5.0 mi SW 11.5 mph - N/A   Partly Cloudy
2:30 PM 97 °F - 66 °F 26% 29.70 in 6 mi WSW 3.5 mph - -   Scattered Clouds
2:40 PM 96.8 °F 101.8 °F 68.0 °F 39% 29.68 in 6.2 mi West 9.2 mph - N/A   Partly Cloudy
3:10 PM 95.0 °F 98.5 °F 66.2 °F 39% 29.65 in 6.2 mi South 5.8 mph - N/A   Partly Cloudy
3:40 PM 95.0 °F 99.5 °F 68.0 °F 41% 29.65 in 6.2 mi SW 13.8 mph - N/A   Partly Cloudy
4:10 PM 95.0 °F 98.5 °F 66.2 °F 39% 29.65 in 5.6 mi SSW 10.4 mph - N/A   Partly Cloudy
4:40 PM 93.2 °F 100.5 °F 71.6 °F 49% 29.65 in 5.0 mi SSE 9.2 mph - N/A   Partly Cloudy
5:10 PM 91.4 °F 102.5 °F 75.2 °F 59% 29.68 in 4.3 mi SE 5.8 mph - N/A   Partly Cloudy
5:30 PM 91 °F - 73 °F 47% 29.71 in 6 mi SSE 3.5 mph - -   Clear
5:40 PM 89.6 °F 98.2 °F 73.4 °F 59% 29.68 in 3.7 mi SE 11.5 mph - N/A   Partly Cloudy
6:10 PM 87.8 °F 95.6 °F 73.4 °F 62% 29.68 in 3.7 mi SSE 10.4 mph - N/A   Partly Cloudy
6:40 PM 86.0 °F 93.4 °F 73.4 °F 66% 29.71 in 3.7 mi SSE 9.2 mph - N/A   Partly Cloudy
7:10 PM 86.0 °F 93.4 °F 73.4 °F 66% 29.71 in 3.7 mi SSE 9.2 mph - N/A   Partly Cloudy
8:10 PM 84.2 °F 90.9 °F 73.4 °F 70% 29.74 in 3.7 mi South 9.2 mph - N/A   Partly Cloudy
8:30 PM 84 °F - 74 °F 64% 29.78 in 2 mi South 3.5 mph - -   Clear
8:40 PM 84.2 °F 90.9 °F 73.4 °F 70% 29.74 in 3.7 mi South 9.2 mph - N/A   Partly Cloudy
9:10 PM 84.2 °F 90.9 °F 73.4 °F 70% 29.77 in 3.7 mi SSE 9.2 mph - N/A   Partly Cloudy
9:40 PM 84.2 °F 90.9 °F 73.4 °F 70% 29.77 in 3.7 mi South 9.2 mph - N/A   Partly Cloudy
10:10 PM 84.2 °F 94.1 °F 77.0 °F 79% 29.77 in 3.7 mi South 10.4 mph - N/A   Partly Cloudy
10:40 PM 82.4 °F 90.9 °F 77.0 °F 84% 29.77 in 3.7 mi South 9.2 mph - N/A   Partly Cloudy
11:10 PM 82.4 °F 90.9 °F 77.0 °F 84% 29.77 in 3.7 mi South 6.9 mph - N/A   Partly Cloudy
11:30 PM 82 °F - 77 °F 82% 29.79 in 2 mi South 2.3 mph - -   Clear
11:40 PM 82.4 °F 90.9 °F 77.0 °F 84% 29.77 in 3.7 mi South 6.9 mph - N/A   Partly Cloudy